Tracking 19562 objects as of 25-Mar-2019
HD Live streaming from Space Station
objects crossing your sky now

ABS-1A (KOREASAT 2)

Track ABS-1A (KOREASAT 2) now!
ABS-1A (KOREASAT 2) is classified as:


NORAD ID: 23768
Int'l Code: 1996-003A
Perigee: 35,904.1 km
Apogee: 35,950.1 km
Inclination: 9.1 °
Period: 1,442.9 minutes
Semi major axis: 42298 km
RCS: 25.1188 m2 (large)
Launch date: January 14, 1996
Source: South Korea (SKOR)
Launch site: AIR FORCE EASTERN TEST RANGE (AFETR)

Korean peninsula; 15 Ku-band transponders.
aabbcc
Your satellite tracking list
Your tracking list is empty




NASA's NSSDC Master Catalog

Two Line Element Set (TLE):
1 23768U 96003A   19083.58729817  .00000046  00000-0  00000+0 0  9991
2 23768   9.1026  42.5545 0005432 327.2897 221.0156  0.99797959 84848
Source of the keplerian elements: AFSPC